Regional Weather Roundup
Issued by NWS Wakefield, VA

Home | Current Version | Previous Version | Text Only | Print | Product List | Glossary Off
Versions: 1 2 3 4 5 6 7 8 9 10 11 12 13 14 15 16 17 18 19 20 21 22 23 24 25 26 27

000
ASUS41 KAKQ 162315
RWRAKQ

REGIONAL WEATHER ROUNDUP
NATIONAL WEATHER SERVICE WAKEFIELD VA
600 PM EST THU NOV 16 2017

Note: "fair" indicates few or no clouds below 12,000 feet with no
significant weather and/or obstructions to visibility. * = Denotes
station may not report precipitation (e.g., rain,snow,etc.),
thunder or fog.

VAZ042-051-052>054-056-170000-
NORTHERN VIRGINIA

CITY           SKY/WX    TMP DP  RH WIND       PRES   REMARKS
WASH NATIONAL  PTCLDY    53  31  42 NW17      30.01R
DULLES         PTCLDY    48  31  51 NW18      30.02R
FORT BELVOIR   CLEAR     52  30  42 NW20      30.00R
QUANTICO       CLEAR     53  32  44 N18G24    30.00R
FREDERICKSBRG* CLEAR     55  35  48 N5        29.99R
STAFFORD*      CLEAR     51  33  50 NW16G22   30.03R
WARRENTON      NOT AVBL
CULPEPER*      CLEAR     52  31  44 N9G16     30.01R
MANASSAS*      CLEAR     48  31  51 NW16      30.03R
LEESBURG*      CLEAR     46  34  61 NW17G25   30.03R
WINCHESTER     MOCLDY    43  30  61 NW14      30.05R
FRONT ROYAL*   CLEAR     45  32  61 MISG      30.03R
LURAY*         CLEAR     46  32  57 W8        30.03R
$$

VAZ048-049-060>072-079>083-170000-
CENTRAL AND SOUTH CENTRAL VIRGINIA

CITY           SKY/WX    TMP DP  RH WIND       PRES   REMARKS
RICHMOND       PTCLDY    57  34  41 W6        29.95R
CHESTERFIELD*  NOT AVBL
PETERSBURG*    CLEAR     44  25  47 CALM      29.97R
HANOVER        CLEAR     53  36  52 NW6       29.97R
TAPPAHANNOCK*    N/A    N/A N/A N/A MISG        N/A
QUINTON*       FAIR      51  37  59 W7        29.95R
CHARLOTTSVILLE CLEAR     55  27  34 NW9       29.99R
GORDONSVILLE*  CLEAR     56  30  36 W8        29.98R
ORANGE*        CLEAR     54  28  37 NW8       29.98R
LOUISA*        CLEAR     56  26  31 NW7       30.02R
BUMPASS*       FAIR      53  27  36 CALM      29.97R
FARMVILLE*     CLEAR     58  31  35 CALM      29.98R
CREWE*         FAIR      51  34  51 W3        29.97R
FORT PICKETT*  NOT AVBL
CHASE CITY*    FAIR      49  34  55 CALM      29.99R
CLARKSVILLE*   FAIR      55  32  41 W3        29.98R
SOUTH HILL*    CLEAR     47  40  76 CALM      30.04R
LAWRENCEVILLE* FAIR      48  39  70 CALM      29.98R
EMPORIA*       CLEAR     46  39  76 CALM      29.99R
$$

VAZ088>098-170000-
SOUTHEAST VIRGINIA

CITY           SKY/WX    TMP DP  RH WIND       PRES   REMARKS
NORFOLK        CLEAR     54  45  71 CALM      29.95R
VIRGINIA BEACH CLEAR     54  40  59 W5        29.94R
NORFOLK NAVAL  CLEAR     54  41  61 SW5       29.97R
WEST POINT*    CLEAR     46  39  77 CALM      29.96R
SALUDA*        FAIR      50  42  73 CALM      29.95R
NEWPORT NEWS   CLEAR     50  39  66 NW5       29.95R
LANGLEY AFB    CLEAR     54  39  58 W6        29.95R
FORT EUSTIS    CLEAR     54  42  63 NW3       29.93R
WILLIAMSBURG*  CLEAR     54  39  58 CALM      29.96R
HR EXEC AP*    NOT AVBL
FRANKLIN*      CLEAR     47  41  79 CALM      29.97R
US460-WAKEFLD  CLEAR     55  40  56 MISG      29.96R
$$

VAZ020-022-025-037-045-170000-
WEST CENTRAL AND SOUTHWEST VIRGINIA

CITY           SKY/WX    TMP DP  RH WIND       PRES   REMARKS
STAUNTON*      CLEAR     46  30  53 N12       30.04R
WAYNESBORO*    CLEAR     48  28  46 NW9       30.01R
HOT SPRINGS VA CLEAR     37  27  67 NW14G23   30.01R
LYNCHBURG      CLEAR     54  24  31 CALM      30.02R
DANVILLE       CLEAR     58  27  30 NW7       30.01R
SOUTH BOSTON*  FAIR      51  30  44 CALM      30.00R
MARTINSVILLE   CLEAR     49  26  41 N6        30.05R
ROANOKE        CLEAR     53  28  38 NW9       30.07R
BLACKSBURG     CLEAR     49  31  49 NW8       30.09R
DUBLIN*        CLEAR     50  29  44 NW8       30.08R
MARION*        CLEAR     50  21  31 W16G24    30.09S
HILLSVILLE*    CLEAR     48  24  37 NW9       30.05R
RICHLANDS*     FAIR      46  -4  12 NW9       30.11R
WISE*          CLEAR     46  34  61 NW5       30.14R
ABINGDON*      CLEAR     54  27  36 N5        30.10R
$$

MDZ021>025-VAZ099-100-170000-
SOUTHERN MARYLAND AND THE DELMARVA PENINSULA

CITY           SKY/WX    TMP DP  RH WIND       PRES   REMARKS
PATUXENT RIVER PTCLDY    56  36  47 NW18      29.95R
BAY BRIDGE APT CLEAR     54  34  47 NW15      29.97R
LEONARDTOWN    PTCLDY    55  34  44 NW5       29.98R
DOVER          CLEAR     53  36  53 NW12      29.93R
GEORGETOWN     CLEAR     55  36  48 NW5       29.94R
EASTON         PTCLDY    54  30  40 NW15G26   30.00R
CAMBRIDGE        N/A    N/A N/A N/A MISG        N/A
SALISBURY      MOCLDY    53  40  61 W5        29.94R
OCEAN CITY     CLEAR     52  40  63 W6        29.93R
WALLOPS ISLAND CLEAR     53  42  66 CALM      29.94R
ACCOMACK*      CLEAR     50  44  78 NW5       29.94R
$$

NCZ012>017-030>032-170000-
NORTH CENTRAL AND EASTERN NORTH CAROLINA

CITY           SKY/WX    TMP DP  RH WIND       PRES   REMARKS
ROANOKE RAPIDS FAIR      48  43  81 CALM      29.98R
RALEIGH        PTCLDY    56  36  47 CALM      30.00R
ELIZABETH CITY CLEAR     55  43  63 W5        29.97R
AHOSKIE*       CLEAR     50  44  78 CALM      29.98R
EDENTON*       CLEAR     57  44  61 CALM      29.97R
CURRITUCK*     CLEAR     55  44  65 CALM      29.96R
KILL DEVIL HLS CLEAR     56  47  73 CALM      29.94R
MANTEO         CLEAR     56  46  69 NW5       29.96R
CAPE HATTERAS  CLEAR     57  52  83 W5        29.96R
TARBORO*       NOT AVBL
GOLDSBORO      CLEAR     57  43  60 W3        29.98R
WASHINGTON     CLEAR     53  45  73 CALM      29.98R
GREENVILLE     CLEAR     50  43  76 CALM      30.00R
NEW BERN       CLEAR     51  48  89 S3        29.99R
WILMINGTON     CLEAR     55  48  77 CALM      30.00R
$$

VAZ048-170000-
ELSEWHERE

CITY           SKY/WX    TMP DP  RH WIND       PRES   REMARKS
HARRISBURG PA  CLOUDY    47  32  56 W14       29.99R
BALTIMORE      PTCLDY    50  31  48 NW21G30   29.99R
ANNAPOLIS      CLEAR     55  34  45 NW13G21   29.99R
ANDREWS AFB    CLEAR     52  30  44 NW18G25   29.98R
PHILADELPHIA   MOCLDY    52  29  41 W22G28    29.94R
HENDERSON NC   CLEAR     52  29  40 CALM      29.99R
GREENSBORO     PTCLDY    55  26  32 W5        30.01R
ROCKY MOUNT    CLEAR     50  46  86 CALM      29.99R
$$

VAZ100-170000-
MARINE

STATION/POSITION TIME  TEMP    WIND        PRES    WAVE   SWELL
                       AIR SEA DIR/SP/G            HT/PER HT/PER
                 (UTC) (F)     (DEG/KT/KT) (MB)    (FT/S) (FT/S)
BRANDYWINE LGT   2242   56     330/ 14/ 16 1013.3R
CAPE MAY NJ      2248   55 53  320/ 11/ 21 1012.4R
LEWES DE         2248   55 54  320/ 15/ 18 1013.2R
15NM E FENWICK I 2250   59 60  270/ 17/ 21 1012.7R   4/11   3/11
OCEAN-CITY-INLET 2248   56 56  300/  6/  7 1013.5R
WACHAPREAGUE VA  2248   53 54   CALM  /  2 1013.8R
THOMAS POINT MD  2300   54 54  320/ 15/ 17   N/A
GOOSES REEF MD   2300   56 55  340/ 16/ 19 1012.0    2/ 3
COVE POINT MD    2248   57     340/ 18/ 22 1015.0R
SOLOMONS ISLAND  2248   57 56  330/ 10/ 17 1014.0R
BISHOPS HEAD MD  2248   56 52  300/ 12/ 16 1014.2R
PINEY POINT MD   2242           10/ 10/ 12   N/A
POTOMAC MD       2300   59 56  280/  8/ 12 1013.3    1
CAMBRIDGE MD     2242   55 52              1014.9R
LEWISETTA VA     2248   57 52  310/  3/  4 1013.8R
RAPPAHANNOCK LGT 2242          340/  7/ 10 1014.4R
STINGRAY PT      2300   57 55  300/  4/  6 1014.3    0
YORK RVR RNG VA  2248   59     310/  8/  9 1014.5R
YORKTOWN VA      2248   59 56  270/  4/  7 1013.7R
JAMESTOWN VA     2300      55  310/  2/  2   N/A     0
DOMINION TERM VA 2248   58     320/  4/  5 1014.3R
KIPTOPEKE VA     2248      55  310/ 10/ 11   N/A
CAPE HENRY VA    2248   59     270/  6/ 10   N/A
WILLOUBY STN VA  2248   59     300/  6/  6 1014.1R
S CRANEY ISL VA  2248   58     300/  4/  5 1013.8R
CAPE HENRY BUOY  2300      61                N/A     3/12   2/12
1ST LANDING BUOY 2300   59 57  330/  8/ 10 1014.0    1/ 4
CAPE CHARLES BUO 2251      59                N/A     3/11   2/11
64NM E OF VA BCH 2250   60 62  310/ 14/ 17 1013.7R   5/12   5/12
DUCK PIER NC     2248   59 59  290/  7/  8 1013.7R
44100 DUCK FRF   2245      62                N/A     4/11   2/11
44056 DUCK FRF   2300      59                N/A     3/12   2/12
OREGON INLET NC  2242   58 58  270/  5/  7 1014.0R
HATTERAS NC      2248   60 60  290/ 12/ 13 1014.3R
DIAMOND SHLS NC  2300   62     280/ 12/ 16 1014.8
CAPE LOOKOUT NC  2300   62     300/ 10/ 12 1015.5R
$$




USA.gov is the U.S. government's official web portal to all federal, state and local government web resources and services.